Weather History for Kankakee, IL

Change the Weather History Date:

Sunday, May 26, 2013

  Actual Average Record
Temperature  
Mean Temperature 51 °F -  
Max Temperature 61 °F 72 °F 94 °F (2012)
Min Temperature 41 °F 49 °F 37 °F (2002)
Degree Days  
Heating Degree Days 14    
Growing Degree Days 1 (Base 50)    
Moisture  
Dew Point 48 °F    
Average Humidity 82    
Maximum Humidity 97    
Minimum Humidity 54    
Precipitation  
Precipitation 0.48 in - - ()
Sea Level Pressure  
Sea Level Pressure 30.24 in    
Wind  
Wind Speed 5 mph (ESE)    
Max Wind Speed 13 mph    
Max Gust Speed 16 mph    
Visibility 9 miles    
Events Rain , Thunderstorm    
Averages and records for this station are not official NWS values.
T = Trace of Precipitation, MM = Missing Value Source: NWS Daily Summary

Daily Weather History Graph

Daily Weather History Graph

Search for Another Location

Airport:

Trip Planner

Search our weather history database for the weather conditions in past years. The results will help you decide how hot, cold, wet, or windy it might be!

Date:

Astronomy

May. 26, 2013 Rise Set
Actual Time 5:24 AM CDT 8:13 PM CDT
Civil Twilight 4:52 AM CDT 8:45 PM CDT
Nautical Twilight 4:11 AM CDT 9:26 PM CDT
Astronomical Twilight 3:24 AM CDT 10:13 PM CDT
Moon 10:00 PM CDT 6:53 AM CDT
Length of Visible Light 15h 53m
Length of Day
14h 48m
Waning Gibbous, 96% of the Moon is Illuminated
May 26
Waning Gibbous
May 31
Last Quarter
Jun 8
New
Jun 16
First Quarter
Jun 23
Full

Hourly Weather History & Observations

Time (CDT) Temp. Windchill Dew Point Humidity Pressure Visibility Wind Dir Wind Speed Gust Speed Precip Events Conditions
12:15 AM 46.4 °F 45.2 °F 43.0 °F 88% 30.30 in 10.0 mi NE 3.5 mph - N/A   Scattered Clouds
12:35 AM 45.9 °F 44.6 °F 42.1 °F 87% 30.30 in 10.0 mi NE 3.5 mph - N/A   Scattered Clouds
12:55 AM 45.7 °F 42.7 °F 41.4 °F 85% 30.30 in 10.0 mi NE 5.8 mph - N/A   Clear
1:15 AM 44.8 °F 41.6 °F 41.4 °F 88% 30.29 in 10.0 mi ENE 5.8 mph - N/A   Clear
1:35 AM 43.3 °F 40.7 °F 41.4 °F 93% 30.28 in 10.0 mi NE 4.6 mph - N/A   Clear
1:55 AM 44.1 °F - 40.8 °F 88% 30.27 in 10.0 mi Calm Calm - N/A   Clear
2:15 AM 43.2 °F 40.5 °F 39.6 °F 87% 30.26 in 10.0 mi ENE 4.6 mph - N/A   Clear
2:35 AM 42.8 °F 39.3 °F 39.6 °F 88% 30.25 in 10.0 mi ENE 5.8 mph - N/A   Clear
2:55 AM 43.5 °F 41.9 °F 39.6 °F 86% 30.25 in 10.0 mi ENE 3.5 mph - N/A   Clear
3:15 AM 43.2 °F - 39.4 °F 86% 30.26 in 10.0 mi Calm Calm - N/A   Clear
3:35 AM 43.5 °F - 39.6 °F 86% 30.26 in 10.0 mi Calm Calm - N/A   Clear
3:55 AM 43.0 °F - 39.9 °F 89% 30.26 in 10.0 mi Calm Calm - N/A   Clear
4:15 AM 43.3 °F - 39.9 °F 88% 30.27 in 10.0 mi Calm Calm - N/A   Clear
4:35 AM 42.8 °F - 40.3 °F 91% 30.27 in 10.0 mi Calm Calm - N/A   Scattered Clouds
4:55 AM 41.9 °F - 40.3 °F 94% 30.27 in 10.0 mi Calm Calm - N/A   Scattered Clouds
5:15 AM 41.5 °F - 40.5 °F 96% 30.28 in 10.0 mi Calm Calm - N/A   Scattered Clouds
5:35 AM 41.9 °F - 39.9 °F 93% 30.28 in 10.0 mi Calm Calm - N/A   Scattered Clouds
5:55 AM 43.2 °F - 41.4 °F 93% 30.27 in 10.0 mi Calm Calm - N/A   Clear
6:15 AM 45.1 °F 43.7 °F 42.4 °F 90% 30.27 in 10.0 mi NE 3.5 mph - N/A   Scattered Clouds
6:35 AM 47.7 °F - 42.6 °F 83% 30.28 in 10.0 mi East 4.6 mph - N/A   Mostly Cloudy
6:55 AM 48.6 °F - 42.3 °F 79% 30.29 in 10.0 mi SE 4.6 mph - N/A   Overcast
7:15 AM 49.1 °F - 43.9 °F 82% 30.29 in 10.0 mi East 6.9 mph - N/A   Mostly Cloudy
7:35 AM 49.1 °F - 44.4 °F 84% 30.29 in 10.0 mi East 4.6 mph - N/A   Mostly Cloudy
7:55 AM 50.4 °F - 44.8 °F 81% 30.29 in 10.0 mi East 5.8 mph - N/A   Overcast
8:15 AM 51.8 °F - 45.3 °F 79% 30.30 in 10.0 mi East 5.8 mph - N/A   Overcast
8:35 AM 52.9 °F - 45.7 °F 77% 30.29 in 10.0 mi East 8.1 mph - N/A   Overcast
8:55 AM 53.6 °F - 46.2 °F 76% 30.29 in 10.0 mi ESE 5.8 mph - N/A   Overcast
9:15 AM 55.0 °F - 46.9 °F 74% 30.29 in 10.0 mi SE 6.9 mph - N/A   Overcast
9:35 AM 55.8 °F - 47.1 °F 73% 30.29 in 10.0 mi ESE 5.8 mph - N/A   Overcast
9:55 AM 56.3 °F - 46.4 °F 69% 30.29 in 10.0 mi SE 5.8 mph - N/A   Overcast
10:15 AM 57.6 °F - 47.1 °F 68% 30.29 in 10.0 mi SE 5.8 mph - N/A   Overcast
10:35 AM 58.8 °F - 44.4 °F 59% 30.29 in 10.0 mi SE 8.1 mph - N/A   Overcast
10:55 AM 60.1 °F - 43.5 °F 54% 30.29 in 10.0 mi SE 9.2 mph - N/A   Overcast
11:15 AM 61.0 °F - 44.8 °F 55% 30.28 in 10.0 mi SE 8.1 mph - N/A   Overcast
11:35 AM 61.5 °F - 46.0 °F 57% 30.29 in 10.0 mi SE 8.1 mph - N/A   Overcast
11:55 AM 60.4 °F - 45.3 °F 57% 30.29 in 10.0 mi SSE 9.2 mph - N/A   Overcast
11:58 AM 60.8 °F - 44.6 °F 55% 30.29 in 10.0 mi SE 5.8 mph - N/A   Overcast
12:15 PM 59.2 °F - 46.4 °F 63% 30.28 in 10.0 mi South 10.4 mph - N/A   Overcast
12:35 PM 56.3 °F - 48.4 °F 75% 30.27 in 7.0 mi SSE 6.9 mph - N/A Rain Light Rain
12:55 PM 55.9 °F - 49.3 °F 78% 30.27 in 10.0 mi SE 6.9 mph - 0.01 in Rain Rain
1:15 PM 56.3 °F - 50.2 °F 80% 30.26 in 10.0 mi ESE 8.1 mph - N/A   Light Drizzle
1:35 PM 58.3 °F - 52.0 °F 80% 30.24 in 10.0 mi SE 8.1 mph - N/A   Overcast
1:55 PM 59.0 °F - 52.2 °F 78% 30.25 in 10.0 mi SE 10.4 mph - N/A   Overcast
2:15 PM 57.9 °F - 51.3 °F 78% 30.25 in 10.0 mi SE 9.2 mph - N/A   Overcast
2:35 PM 58.3 °F - 51.6 °F 78% 30.24 in 10.0 mi ESE 6.9 mph - N/A Rain Light Rain
2:55 PM 58.3 °F - 51.3 °F 77% 30.24 in 10.0 mi ESE 9.2 mph - N/A   Overcast
3:15 PM 58.5 °F - 51.6 °F 78% 30.23 in 10.0 mi ESE 6.9 mph - N/A Rain Light Rain
3:35 PM 58.3 °F - 51.3 °F 77% 30.22 in 10.0 mi ESE 9.2 mph - N/A Rain Light Rain
3:55 PM 57.6 °F - 51.6 °F 81% 30.22 in 10.0 mi SE 6.9 mph - N/A Rain Light Rain
4:15 PM 57.7 °F - 51.8 °F 81% 30.21 in 10.0 mi ESE 9.2 mph - N/A Rain Light Rain
4:35 PM 59.2 °F - 53.1 °F 80% 30.20 in 10.0 mi ESE 9.2 mph - N/A   Mostly Cloudy
4:55 PM 59.5 °F - 53.1 °F 79% 30.19 in 10.0 mi ESE 12.7 mph - N/A   Mostly Cloudy
5:15 PM 59.4 °F - 53.2 °F 80% 30.19 in 10.0 mi ESE 9.2 mph - N/A   Mostly Cloudy
5:35 PM 59.9 °F - 53.1 °F 78% 30.18 in 10.0 mi ESE 10.4 mph - N/A   Overcast
5:55 PM 59.9 °F - 52.3 °F 76% 30.18 in 10.0 mi East 12.7 mph - N/A   Mostly Cloudy
6:15 PM 59.9 °F - 52.0 °F 75% 30.18 in 10.0 mi East 6.9 mph - N/A   Overcast
6:35 PM 59.9 °F - 51.8 °F 75% 30.22 in 7.0 mi North 5.8 mph - N/A Rain Heavy Rain
6:55 PM 56.5 °F - 54.1 °F 92% 30.18 in 5.0 mi East 9.2 mph - 0.05 in Rain Rain
7:15 PM 56.3 °F - 53.8 °F 91% 30.15 in 5.0 mi East 9.2 mph 15.0 mph 0.03 in Rain Light Rain
7:35 PM 56.3 °F - 53.2 °F 89% 30.16 in 10.0 mi ESE 9.2 mph - 0.04 in Rain Light Rain
7:55 PM 55.9 °F - 53.6 °F 92% 30.16 in 10.0 mi ENE 10.4 mph - 0.04 in   Mostly Cloudy
8:15 PM 55.8 °F - 53.6 °F 92% 30.17 in 10.0 mi East 5.8 mph - N/A   Scattered Clouds
8:35 PM 56.3 °F - 53.6 °F 91% 30.16 in 10.0 mi East 6.9 mph - N/A   Mostly Cloudy
8:55 PM 56.1 °F - 53.6 °F 91% 30.16 in 7.0 mi East 6.9 mph - 0.01 in Rain Light Rain
9:15 PM 55.8 °F - 53.6 °F 92% 30.14 in 7.0 mi East 12.7 mph - 0.03 in Rain Rain
9:35 PM 55.6 °F - 53.6 °F 93% 30.14 in 7.0 mi East 11.5 mph - 0.06 in Rain Rain
9:55 PM 55.6 °F - 53.6 °F 93% 30.16 in 7.0 mi East 6.9 mph - 0.07 in Rain Light Rain
10:15 PM 55.6 °F - 53.8 °F 94% 30.15 in 7.0 mi East 10.4 mph - N/A Rain Light Rain
10:35 PM 55.4 °F - 53.8 °F 94% 30.16 in 7.0 mi East 8.1 mph - 0.03 in Rain , Thunderstorm Rain
10:55 PM 55.6 °F - 54.0 °F 94% 30.14 in 5.0 mi East 9.2 mph - 0.08 in Rain , Thunderstorm Thunderstorms and Rain
11:15 PM 55.6 °F - 54.0 °F 94% 30.14 in 4.0 mi ESE 11.5 mph - 0.07 in Rain , Thunderstorm Heavy Thunderstorms and Rain
11:35 PM 55.4 °F - 54.1 °F 96% 30.11 in 5.0 mi ESE 12.7 mph - 0.13 in Rain , Thunderstorm Rain
11:55 PM 55.4 °F - 54.5 °F 97% 30.13 in 4.0 mi ESE 6.9 mph 16.1 mph 0.22 in Rain , Thunderstorm Heavy Thunderstorms and Rain